Powrót do katalogu

STARLINK-3963

AktywnyŁącznośćVLEO
NORAD 52643·PAYLOAD·🇺🇸 United States

Wystrzelony May 14, 2022 z Cape Canaveral Space Force Station

Loading…

Następne Przeloty (najbliższe 24 godziny)

TLE

ŚwieżeSource: CelesTrak SupGP

Epoka: Sep 14, 2026, 14:13 UTC

1 52643C 22052AX  26257.59284722  .00025995  00000+0  83586-3 0  2571
2 52643  53.1569 118.4769 0001301  97.1801  86.9381 15.31691520    17

Śledź STARLINK-3963 w czasie rzeczywistym z AllMySat

Download on the App Store